Regional Weather Roundup
Issued by NWS Newport/Morehead, NC

Current Version | Previous Version | Graphics & Text | Print | Product List | Glossary On
Versions: 1 2 3 4 5 6 7 8 9 10 11 12 13 14 15 16 17 18 19 20 21 22 23 24 25 26 27 28 29 30 31 32 33 34 35 36 37 38 39 40 41 42 43 44 45 46 47 48 49 50
000 ASUS42 KMHX 041713 RWRMHX WEATHER ROUNDUP FOR EASTERN NORTH CAROLINA NATIONAL WEATHER SERVICE NEWPORT/MOREHEAD CITY NC 100 PM EDT TUE AUG 04 2015 NOTE: "FAIR" INDICATES FEW OR NO CLOUDS BELOW 12,000 FEET WITH NO SIGNIFICANT WEATHER AND/OR OBSTRUCTIONS TO VISIBILITY NCZ015>017-031-032-045>047-102-103-041800- NORTH COAST CITY SKY/WX TMP DP RH WIND PRES REMARKS EDENTON LGT RAIN 79 72 80 SW18G30 30.02R ELIZABETH CITY MOSUNNY 89 74 60 S16G25 29.99F KITTY HAWK MOSUNNY 90 73 56 SW8G16 30.00S MANTEO RAIN 83 76 79 SW18 30.01F $$ NCZ045>047-081-094-103-104-041800- CENTRAL COAST CITY SKY/WX TMP DP RH WIND PRES REMARKS FRISCO LGT RAIN 79 73 82 SW12G18 30.04F SWANQUARTER N/A 82 N/A N/A SW17 30.00S $$ NCZ095-097-098-100-101-041800- SOUTHERN COAST CITY SKY/WX TMP DP RH WIND PRES REMARKS BEAUFORT CLOUDY 82 76 81 S14 30.02F CEDAR ISLAND N/A 82 N/A N/A S22 30.06F JACKSONVILLE CLOUDY 82 75 79 S15 30.00F PINEY ISLAND CLOUDY N/A N/A N/A S16G24 30.02F WILMINGTON CLOUDY 82 73 74 SE12 29.98F $$ NCZ011>013-027>030-043-044-078>080-089-090>093-098-041800- COASTAL PLAIN CITY SKY/WX TMP DP RH WIND PRES REMARKS AHOSKIE SUNNY 88 71 56 S5G16 29.97F CLINTON MOSUNNY 87 75 66 SE6 29.99F ELIZABETHTOWN MOSUNNY 85 71 62 SE8 29.98F GOLDSBORO MOSUNNY 87 74 65 SE8 29.97F GREENVILLE PTSUNNY 81 73 78 S18G28 30.03S HAVELOCK CLOUDY 84 75 74 S12G24 30.02F KENANSVILLE N/A N/A N/A N/A S8 30.00F KINSTON PTSUNNY 84 73 70 S8 30.01S NEW BERN CLOUDY 84 75 74 S8 30.02F RICHLANDS CLOUDY 86 72 62 S14G23 30.00F ROCKY MOUNT PTSUNNY 91 71 51 S9G18 29.99F WASHINGTON PTSUNNY 81 74 81 S5 30.03S WHITEVILLE CLOUDY 81 73 77 E7 29.96S $$ AMZ130-135-150-152-154-156-158-170-250-252-270-ANZ085-086-088-633-658-670-041800- MARINE OBSERVATIONS STATION/POSITION TIME TEMP WIND PRES WAVE SWELL AIR SEA DIR/SP/G HT/PER HT/PER (UTC) (F) (DEG/KT/KT) (MB) (FT/S) (FT/S) CHESAPEAKE LIGHT 1700 81 210/ 15/ 15 1015.1 64 E VA BEACH 1650 81 81 210/ 16/ 19 1015.2 4/ 6 2/11 DUCK 1600 85 62 220/ 13/ 18 1015.2 2 E DUCK 1611 70 N/A 2/11 OREGON INLET 1600 82 81 200/ 16/ 19 1016.8 13E OREGON INLT 1700 81 N/A 3/11 2/11 HATTERAS CG 1600 79 78 180/ 6/ 14 1017.5 DIAMOND BUOY 1650 81 84 190/ 12/ 14 1017.6 4/ 7 3/ 7 CAPE LOOKOUT 1700 82 200/ 12/ 14 1016.2 BEAUFORT LAB 1600 81 80 190/ 19/ 22 1016.5 30 SE NEW RVR IN NOT AVBL 27 SE WRIGHTSVLE 1600 78 82 210/ 16/ 19 N/A 5 SE WRIGHTSVLE 1608 80 81 180/ 21/ 29 1015.3 225 S CAPE HAT 1650 83 81 200/ 12/ 14 1019.3 5/ 6 5/ 6 41 SE CHARLESTON 1650 81 83 260/ 14/ 16 1014.3 6/ 8 5/ 8 $$

USA.gov is the U.S. government's official web portal to all federal, state and local government web resources and services.